Location: Sungai Liu
(2.3667°N, 113.8667°E)
Time: 12:29:37
(UTC+00:00)

Cosmos 407 Rocket - Pass Details

Date: 20 May 2022
Orbit: 743 x 786 km, 74.0° (Epoch: 04 July)

Event Time Altitude Azimuth Distance (km) Brightness Sun altitude
Rises 21:45:14 0° 343° (NNW) 3,232 6.8 -7.6°
Reaches altitude 10° 21:47:37 10° 341° (NNW) 2,301 6.0 -7.0°
Maximum altitude 21:52:49 70° 258° (WSW) 808 3.5 -5.8°
Drops below altitude 10° 21:57:58 10° 175° (S) 2,280 5.8 -4.6°
Sets 22:00:20 0° 172° (S) 3,201 6.6 -4.1°
